Location: Recife
(8.0585°S, 34.8848°W)
Time: 10:08:25
(UTC-03:00)

SR - Pass Details

Date: 17 April 2026
Orbit: 568 x 852 km, 66.7° (Epoch: 12 May)

Event Time Altitude Azimuth Distance (km) Brightness Sun altitude
Rises 22:33:39 0° 19° (NNE) 3,398 - -78.5°
Reaches altitude 10° 22:37:38 10° 46° (NE) 2,457 - -79.4°
Maximum altitude 22:40:05 13° 71° (ENE) 2,243 - -80.0°
Drops below altitude 10° 22:42:31 10° 97° (E) 2,426 - -80.6°
Sets 22:46:23 0° 124° (SE) 3,317 - -81.5°
